LKW-1 (43034 NORAD) Tracking and Keplerian Element Data

This shows tracking and keplerian element data for the satellite.

Feedback or suggestion? Click here.




ElementValue
Catalog43034
NameLKW-1
Epoch Orbit36218
Epoch Day160.19812737
Epoch Year2024
RAAN217.9977
Inclination97.2037
Eccentricity0.0002472
Argument of Perigee186.4188
Mean Anonmoly173.7018
Mean Motion15.2321158
Decay Rate0.00012447
L11 43034U 17077A 24160.19812737 .00012447 00000+0 52843-3 0 9999
L22 43034 97.2037 217.9977 0002472 186.4188 173.7018 15.23211580362182



Live tracking and technical data element details for LKW-1 (NORAD 43034). LKW-1 can be tracked NOW for your location showing map with azimuth and elevation plus other details from your city location.







IsCatalogInMostPopularTable: catalog: 43034, numindb: 613
Update: records affected: 1



GetName: 43034 LKW-1

Hit Count: updated at: Fri, 14 Jun 2024 19:03:33 GMT